| time (UTC) | temp F | wind direction | speed MPH | gust MPH | rain 1hr in | rain 24hr in | rain mn in | humidity % | barometer mb |
| 20260505234535 | 82 | 0.0 | 6.0 | 0.00 | 0.00 | 0.00 | 24 | 1006.3 | |
| 20260505233028 | 83 | 0.0 | 0.0 | 0.00 | 0.00 | 0.00 | 24 | 1006.4 | |
| 20260505231527 | 81 | 5.0 | 10.0 | 0.00 | 0.00 | 0.00 | 24 | 1006.5 | |
| 20260505230041 | 84 | 0.0 | 4.0 | 0.00 | 0.00 | 0.00 | 25 | 1006.6 | |
| 20260505224524 | 83 | 0.0 | 5.0 | 0.00 | 0.00 | 0.00 | 24 | 1006.9 | |
| 20260505223025 | 82 | 0.0 | 7.0 | 0.00 | 0.00 | 0.00 | 25 | 1007.0 | |
| 20260505221519 | 81 | 5.0 | 8.0 | 0.00 | 0.00 | 0.00 | 25 | 1007.1 | |
| 20260505220019 | 80 | 4.0 | 10.0 | 0.00 | 0.00 | 0.00 | 24 | 1007.4 | |
| 20260505214519 | 81 | 1.0 | 8.0 | 0.00 | 0.00 | 0.00 | 25 | 1007.6 | |
| 20260505213014 | 80 | 2.0 | 11.0 | 0.00 | 0.00 | 0.00 | 26 | 1007.8 | |
| 20260505211513 | 80 | 2.0 | 6.0 | 0.00 | 0.00 | 0.00 | 24 | 1008.0 | |
| 20260505210011 | 80 | 1.0 | 8.0 | 0.00 | 0.00 | 0.00 | 25 | 1008.2 | |
| 20260505204508 | 77 | 5.0 | 13.0 | 0.00 | 0.00 | 0.00 | 26 | 1008.4 | |
| 20260505203007 | 77 | 5.0 | 11.0 | 0.00 | 0.00 | 0.00 | 27 | 1008.5 | |
| 20260505201508 | 76 | 5.0 | 8.0 | 0.00 | 0.00 | 0.00 | 27 | 1008.7 | |
| 20260505200013 | 76 | 5.0 | 12.0 | 0.00 | 0.00 | 0.00 | 26 | 1008.8 | |
| 20260505194506 | 76 | 7.0 | 12.0 | 0.00 | 0.00 | 0.00 | 27 | 1008.9 | |
| 20260505193002 | 76 | 5.0 | 11.0 | 0.00 | 0.00 | 0.00 | 30 | 1009.0 | |
| 20260505191601 | 74 | 7.0 | 11.0 | 0.00 | 0.00 | 0.00 | 30 | 1009.1 | |
| 20260505190058 | 73 | 5.0 | 10.0 | 0.00 | 0.00 | 0.00 | 31 | 1009.3 | |
| 20260505184556 | 74 | 6.0 | 12.0 | 0.00 | 0.00 | 0.00 | 31 | 1009.4 | |
| 20260505183100 | 72 | 0.0 | 7.0 | 0.00 | 0.00 | 0.00 | 31 | 1009.6 | |
| 20260505181552 | 72 | 2.0 | 12.0 | 0.00 | 0.00 | 0.00 | 32 | 1009.6 | |
| 20260505180050 | 72 | 7.0 | 10.0 | 0.00 | 0.00 | 0.00 | 32 | 1009.6 | |
| 20260505174551 | 72 | 5.0 | 9.0 | 0.00 | 0.00 | 0.00 | 33 | 1009.7 | |
| 20260505173050 | 70 | 0.0 | 12.0 | 0.00 | 0.00 | 0.00 | 36 | 1009.8 | |
| 20260505171544 | 69 | 0.0 | 10.0 | 0.00 | 0.00 | 0.00 | 37 | 1009.9 | |
| 20260505170043 | 69 | 6.0 | 9.0 | 0.00 | 0.00 | 0.00 | 36 | 1009.9 | |
| 20260505164556 | 68 | 5.0 | 10.0 | 0.00 | 0.00 | 0.00 | 36 | 1009.9 | |
| 20260505163049 | 68 | 3.0 | 7.0 | 0.00 | 0.00 | 0.00 | 36 | 1009.9 | |
| 20260505161544 | 68 | 4.0 | 9.0 | 0.00 | 0.00 | 0.00 | 37 | 1009.9 | |
| 20260505153049 | 65 | 0.0 | 4.0 | 0.00 | 0.00 | 0.00 | 45 | 1010.0 | |
| 20260505151543 | 64 | 1.0 | 3.0 | 0.00 | 0.00 | 0.00 | 46 | 1010.0 | |
| 20260505124522 | 57 | 0.0 | 0.0 | 0.00 | 0.00 | 0.00 | 51 | 1008.5 | |
| 20260505123017 | 58 | 0.0 | 3.0 | 0.00 | 0.00 | 0.00 | 49 | 1008.3 | |
| 20260505121511 | 58 | 0.0 | 4.0 | 0.00 | 0.00 | 0.00 | 49 | 1008.1 | |
| 20260505120010 | 59 | 0.0 | 0.0 | 0.00 | 0.00 | 0.00 | 47 | 1008.0 | |
| 20260505114508 | 59 | 0.0 | 0.0 | 0.00 | 0.00 | 0.00 | 47 | 1007.9 | |
| 20260505113006 | 58 | 0.0 | 0.0 | 0.00 | 0.00 | 0.00 | 47 | 1007.9 | |
| 20260505111502 | 59 | 2.0 | 4.0 | 0.00 | 0.00 | 0.00 | 46 | 1007.6 | |
| 20260505110106 | 60 | 3.0 | 4.0 | 0.00 | 0.00 | 0.00 | 45 | 1007.6 | |
| 20260505101557 | 61 | 2.0 | 3.0 | 0.00 | 0.00 | 0.00 | 43 | 1007.3 | |
| 20260505100055 | 62 | 0.0 | 0.0 | 0.00 | 0.00 | 0.00 | 41 | 1007.2 | |
| 20260505094553 | 62 | 0.0 | 0.0 | 0.00 | 0.00 | 0.00 | 41 | 1007.1 | |
| 20260505093048 | 63 | 3.0 | 4.0 | 0.00 | 0.00 | 0.00 | 40 | 1007.0 | |
| 20260505091556 | 61 | 0.0 | 0.0 | 0.00 | 0.00 | 0.00 | 43 | 1006.9 | |
| 20260505090054 | 62 | 0.0 | 0.0 | 0.00 | 0.00 | 0.00 | 41 | 1006.8 | |
| 20260505084543 | 63 | 0.0 | 0.0 | 0.00 | 0.00 | 0.00 | 40 | 1006.7 | |
| 20260505083046 | 62 | 0.0 | 0.0 | 0.00 | 0.00 | 0.00 | 41 | 1006.6 | |
| 20260505081552 | 63 | 0.0 | 0.0 | 0.00 | 0.00 | 0.00 | 40 | 1006.6 | |
| 20260505080042 | 63 | 2.0 | 4.0 | 0.00 | 0.00 | 0.00 | 41 | 1006.5 | |
| 20260505074538 | 65 | 0.0 | 0.0 | 0.00 | 0.00 | 0.00 | 37 | 1006.3 | |
| 20260505073030 | 65 | 0.0 | 3.0 | 0.00 | 0.00 | 0.00 | 37 | 1006.2 | |
| 20260505071531 | 65 | 2.0 | 6.0 | 0.00 | 0.00 | 0.00 | 37 | 1006.0 | |
| 20260505070027 | 67 | 0.0 | 0.0 | 0.00 | 0.00 | 0.00 | 35 | 1006.0 | |
| 20260505064526 | 69 | 0.0 | 3.0 | 0.00 | 0.00 | 0.00 | 33 | 1005.8 | |
| 20260505063034 | 69 | 0.0 | 0.0 | 0.00 | 0.00 | 0.00 | 33 | 1005.7 | |
| 20260505061530 | 69 | 0.0 | 0.0 | 0.00 | 0.00 | 0.00 | 32 | 1005.6 | |
| 20260505060023 | 70 | 0.0 | 0.0 | 0.00 | 0.00 | 0.00 | 31 | 1005.5 | |
| 20260505054527 | 71 | 0.0 | 0.0 | 0.00 | 0.00 | 0.00 | 31 | 1005.3 | |
| 20260505053022 | 72 | 0.0 | 7.0 | 0.00 | 0.00 | 0.00 | 30 | 1005.4 | |
| 20260505051522 | 73 | 2.0 | 8.0 | 0.00 | 0.00 | 0.00 | 29 | 1005.2 | |
| 20260505041519 | 75 | 4.0 | 8.0 | 0.00 | 0.00 | 0.00 | 27 | 1004.5 | |
| 20260505040018 | 76 | 4.0 | 9.0 | 0.00 | 0.00 | 0.00 | 26 | 1004.4 | |
| 20260505034520 | 76 | 4.0 | 10.0 | 0.00 | 0.00 | 0.00 | 26 | 1004.2 | |
| 20260505033030 | 77 | 4.0 | 12.0 | 0.00 | 0.00 | 0.00 | 26 | 1003.9 | |
| 20260505031519 | 77 | 9.0 | 13.0 | 0.00 | 0.00 | 0.00 | 26 | 1003.8 | |
| 20260505030016 | 78 | 4.0 | 10.0 | 0.00 | 0.00 | 0.00 | 26 | 1003.6 | |
| 20260505024535 | 78 | 7.0 | 11.0 | 0.00 | 0.00 | 0.00 | 26 | 1003.5 | |
| 20260505023015 | 78 | 7.0 | 10.0 | 0.00 | 0.00 | 0.00 | 26 | 1003.4 | |
| 20260505021528 | 78 | 5.0 | 8.0 | 0.00 | 0.00 | 0.00 | 26 | 1003.3 | |
| 20260505020013 | 79 | 5.0 | 9.0 | 0.00 | 0.00 | 0.00 | 26 | 1003.2 | |
| 20260505014514 | 80 | 8.0 | 14.0 | 0.00 | 0.00 | 0.00 | 25 | 1003.3 | |
| 20260505013011 | 80 | 9.0 | 15.0 | 0.00 | 0.00 | 0.00 | 24 | 1003.3 | |
| 20260505011508 | 81 | 8.0 | 16.0 | 0.00 | 0.00 | 0.00 | 24 | 1003.4 | |
| 20260505010003 | 81 | 9.0 | 15.0 | 0.00 | 0.00 | 0.00 | 24 | 1003.3 | |
| 20260505004605 | 81 | 11.0 | 18.0 | 0.00 | 0.00 | 0.00 | 23 | 1003.3 | |
| 20260505003056 | 81 | 10.0 | 14.0 | 0.00 | 0.00 | 0.00 | 23 | 1003.3 | |
| 20260505001553 | 81 | 10.0 | 17.0 | 0.00 | 0.00 | 0.00 | 24 | 1003.4 | |
| 20260505000051 | 81 | 13.0 | 19.0 | 0.00 | 0.00 | 0.00 | 24 | 1003.4 |